User: anonymous   Login
Location: Katowice
(50.2611°N, 19.0242°E)
Time: 14:36:50
(UTC+02:00)
Language:

deb Explorer IX - Orbit

View from above orbital plane
View from above orbital plane
View from above satellite
View from above satellite

Ground track
Ground track

The orbit data is extracted from the following two-line orbital elements,

1    85U 61004C   19201.54317213 +.00000574 +00000-0 +14284-3 0  9991
2    85 038.7743 277.9102 0397605 082.4430 282.1287 14.19916273883750
Epoch (UTC): 20 July 2019 13:02:10
Eccentricity: 0.0397605
inclination: 38.7743°
perigee height: 539 km
apogee height: 1112 km
right ascension of ascending node: 277.9102°
argument of perigee: 82.4430°
revolutions per day: 14.19916273
mean anomaly at epoch: 282.1287°
orbit number at epoch: 88375

The dashed part of the orbit path shows where the satellite is in the earth's shadow,  

DLR